Punta Cana, Dominican Republic

11:27 AM AST on December 15, 2017 (GMT -0400)
Punta Cana International

Weather History for MDPC - November, 2012

Change the Weather History Date:

Friday, November 23, 2012

  Actual Average Record
Temperature  
Mean Temperature 78 °F -  
Max Temperature 83 °F 82 °F 87 °F (2002)
Min Temperature 73 °F 73 °F 42 °F (2008)
Cooling Degree Days 13    
Growing Degree Days 28 (Base 50)    
Moisture  
Dew Point 73 °F    
Average Humidity 88    
Maximum Humidity 100    
Minimum Humidity 74    
Precipitation  
Precipitation 0.00 in - - ()
Sea Level Pressure  
Sea Level Pressure 29.92 in    
Wind  
Wind Speed 8 mph ()    
Max Wind Speed 16 mph    
Max Gust Speed -    
Visibility 6.9 miles    
Events      
Averages and records for this station are not official NWS values.
T = Trace of Precipitation, MM = Missing Value Source: Averaged Metar Reports

Daily Weather History Graph

Daily Weather History Graph

Search for Another Location

Airport or City:

Trip Planner

Search our weather history database for the weather conditions in past years. The results will help you decide how hot, cold, wet, or windy it might be!

Date:

Astronomy

Nov. 23, 2012 Rise Set
Actual Time 6:45 AM AST 5:54 PM AST
Civil Twilight 6:21 AM AST 6:18 PM AST
Nautical Twilight 5:54 AM AST 6:44 PM AST
Astronomical Twilight 5:28 AM AST 7:11 PM AST
Moon 2:39 PM AST (11/23) 2:33 AM AST (11/23)
Length of Visible Light 11h 56m
Length of Day
11h 09m
Waxing Gibbous, 79% of the Moon is Illuminated
Nov 23
Waxing Gibbous
Nov 28
Full
Dec 6
Last Quarter
Dec 13
New
Dec 20
First Quarter

Hourly Weather History & Observations

Time (AST) Temp. Heat Index Dew Point Humidity Pressure Visibility Wind Dir Wind Speed Gust Speed Precip Events Conditions
12:00 AM 75.2 °F - 75.2 °F 100% 29.92 in 6.2 mi North 8.1 mph - N/A   Scattered Clouds
1:00 AM 75.2 °F - 75.2 °F 100% 29.92 in 6.2 mi North 6.9 mph - N/A   Scattered Clouds
2:00 AM 75 °F - 74 °F 97% 29.92 in 10 mi NNW 6.7 mph - -   Scattered Clouds
2:00 AM 75.2 °F - 73.4 °F 94% 29.92 in 6.2 mi North 5.8 mph - N/A   Scattered Clouds
3:00 AM 75.2 °F - 73.4 °F 94% 29.89 in 6.2 mi North 5.8 mph - N/A   Scattered Clouds
4:00 AM 73.4 °F - 73.4 °F 100% 29.89 in 6.2 mi North 5.8 mph - N/A   Scattered Clouds
5:00 AM 73.4 °F - 73.4 °F 100% 29.89 in 6.2 mi North 8.1 mph - N/A   Partly Cloudy
6:00 AM 75.2 °F - 73.4 °F 94% 29.89 in 6.2 mi NNE 11.5 mph - N/A   Scattered Clouds
7:00 AM 75.2 °F - 73.4 °F 94% 29.92 in 6.2 mi North 9.2 mph - N/A   Mostly Cloudy
8:00 AM 77 °F - 74 °F 88% 29.94 in 10 mi NNE 6.7 mph - -   Partly Cloudy
8:00 AM 77.0 °F - 73.4 °F 89% 29.92 in 6.2 mi NNE 5.8 mph - N/A   Scattered Clouds
9:00 AM 80.6 °F 86.2 °F 75.2 °F 84% 29.95 in 6.2 mi NE 9.2 mph - N/A   Mostly Cloudy
10:00 AM 78.8 °F - 75.2 °F 89% 29.98 in 6.2 mi NE 12.7 mph - N/A   Mostly Cloudy
11:00 AM 81 °F - 74 °F 74% 29.98 in 10 mi NNE 13.4 mph - -   Partly Cloudy
11:00 AM 80.6 °F 85.4 °F 73.4 °F 79% 29.98 in 6.2 mi NNE 13.8 mph - N/A   Mostly Cloudy
12:00 PM 80.6 °F 85.4 °F 73.4 °F 79% 29.95 in 6.2 mi NNE 13.8 mph - N/A   Mostly Cloudy
1:00 PM 80.6 °F 85.4 °F 73.4 °F 79% 29.92 in 6.2 mi NNE 13.8 mph - N/A   Mostly Cloudy
2:00 PM 80.6 °F 86.2 °F 75.2 °F 84% 29.89 in 6.2 mi NE 13.8 mph - N/A   Mostly Cloudy
3:00 PM 80.6 °F 85.4 °F 73.4 °F 79% 29.89 in 6.2 mi NE 13.8 mph - N/A   Mostly Cloudy
4:00 PM 78.8 °F - 73.4 °F 83% 29.89 in 6.2 mi NNE 16.1 mph - N/A   Mostly Cloudy
5:00 PM 77 °F - 72 °F 81% 29.90 in 10 mi NNE 13.4 mph - -   Mostly Cloudy
5:00 PM 77.0 °F - 71.6 °F 83% 29.89 in 6.2 mi NNE 13.8 mph - N/A   Mostly Cloudy
6:00 PM 77.0 °F - 71.6 °F 83% 29.92 in 6.2 mi NNE 6.9 mph - N/A   Mostly Cloudy
7:00 PM 75.2 °F - 73.4 °F 94% 29.92 in 6.2 mi NNE 6.9 mph - N/A   Mostly Cloudy
8:00 PM 75 °F - 73 °F 90% 29.94 in 10 mi ENE 8.9 mph - -   Partly Cloudy
8:00 PM 75.2 °F - 73.4 °F 94% 29.92 in 6.2 mi ENE 9.2 mph - N/A   Mostly Cloudy
9:00 PM 75.2 °F - 71.6 °F 89% 29.95 in 6.2 mi ENE 6.9 mph - N/A   Mostly Cloudy
10:00 PM 77.0 °F - 69.8 °F 78% 29.95 in 6.2 mi NE 9.2 mph - N/A   Mostly Cloudy
11:00 PM 77.0 °F - 69.8 °F 78% 29.95 in 6.2 mi NE 9.2 mph - N/A   Mostly Cloudy